TimeEDT,TemperatureF,Dew PointF,Humidity,Sea Level PressureIn,VisibilityMPH,Wind Direction,Wind SpeedMPH,Gust SpeedMPH,PrecipitationIn,Events,Conditions,WindDirDegrees,DateUTC
12:53 AM,68.0,64.0,87,29.87,10.0,SSE,6.9,-,0.05,Rain,Light Rain,160,2013-10-06 04:53:00
1:53 AM,68.0,64.0,87,29.88,10.0,South,8.1,-,0.03,Rain,Light Rain,170,2013-10-06 05:53:00
2:26 AM,68.0,64.4,88,29.89,9.0,SSE,10.4,-,0.04,Rain-Thunderstorm,Light Thunderstorms and Rain,150,2013-10-06 06:26:00
2:53 AM,66.9,64.9,93,29.86,5.0,SSE,6.9,-,0.13,Rain-Thunderstorm,Rain,150,2013-10-06 06:53:00
3:00 AM,66.2,64.4,94,29.88,4.0,SSE,5.8,-,0.05,Rain-Thunderstorm,Heavy Rain,150,2013-10-06 07:00:00
3:07 AM,66.2,64.4,94,29.88,3.0,South,10.4,-,0.11,Rain-Thunderstorm,Heavy Thunderstorms and Rain,180,2013-10-06 07:07:00
3:09 AM,66.2,64.4,94,29.88,2.5,South,9.2,-,0.14,Rain-Thunderstorm,Heavy Thunderstorms and Rain,180,2013-10-06 07:09:00
3:23 AM,66.2,64.4,94,29.88,2.5,South,11.5,-,0.25,Rain-Thunderstorm,Heavy Rain,180,2013-10-06 07:23:00
3:32 AM,66.2,64.4,94,29.87,3.0,South,8.1,-,0.29,Rain,Rain,170,2013-10-06 07:32:00
3:49 AM,68.0,64.4,88,29.86,6.0,South,10.4,-,0.32,Rain-Thunderstorm,Light Thunderstorms and Rain,170,2013-10-06 07:49:00
3:53 AM,68.0,64.9,90,29.84,6.0,South,10.4,-,0.33,Rain-Thunderstorm,Thunderstorms and Rain,170,2013-10-06 07:53:00
4:12 AM,68.0,64.4,88,29.85,8.0,South,8.1,-,0.05,Rain,Light Rain,170,2013-10-06 08:12:00
4:22 AM,66.2,64.4,94,29.84,6.0,SSE,6.9,-,0.08,Rain-Thunderstorm,Thunderstorms and Rain,160,2013-10-06 08:22:00
4:37 AM,66.2,64.4,94,29.84,5.0,SSE,8.1,-,0.14,Rain,Rain,160,2013-10-06 08:37:00
4:53 AM,66.9,64.0,90,29.83,5.0,SSE,5.8,-,0.20,Rain,Rain,160,2013-10-06 08:53:00
5:53 AM,66.9,64.0,90,29.83,10.0,SSE,5.8,-,0.10,Rain,Light Rain,160,2013-10-06 09:53:00
6:53 AM,66.9,64.0,90,29.81,8.0,SE,9.2,-,0.09,Rain,Rain,130,2013-10-06 10:53:00
7:17 AM,66.2,64.4,94,29.83,10.0,SSE,10.4,-,0.02,Rain,Light Rain,150,2013-10-06 11:17:00
7:53 AM,66.9,64.0,90,29.79,10.0,SE,11.5,-,0.06,Rain,Light Rain,130,2013-10-06 11:53:00
8:53 AM,66.9,63.0,87,29.79,6.0,SSE,12.7,19.6,0.05,Rain,Light Rain,150,2013-10-06 12:53:00
9:20 AM,66.2,64.4,94,29.81,9.0,SSE,11.5,18.4,0.03,Rain,Light Rain,160,2013-10-06 13:20:00
9:53 AM,66.9,64.0,90,29.78,7.0,SSE,11.5,19.6,0.05,Rain,Light Rain,150,2013-10-06 13:53:00
10:53 AM,69.1,64.9,87,29.77,10.0,South,15.0,20.7,0.02,,Overcast,180,2013-10-06 14:53:00
11:53 AM,59.0,55.9,90,29.78,7.0,West,8.1,-,0.01,Rain,Light Rain,280,2013-10-06 15:53:00
12:38 PM,59.0,55.4,88,29.79,1.8,West,9.2,-,0.08,Rain,Heavy Rain,280,2013-10-06 16:38:00
12:48 PM,59.0,55.4,88,29.79,3.0,West,9.2,-,0.10,Rain,Rain,280,2013-10-06 16:48:00
12:53 PM,59.0,55.0,87,29.78,4.0,West,9.2,-,0.11,Rain,Rain,270,2013-10-06 16:53:00
1:04 PM,57.2,55.4,94,29.80,2.0,West,10.4,-,0.04,Rain,Rain,260,2013-10-06 17:04:00
1:08 PM,57.2,55.4,94,29.79,3.0,West,11.5,-,0.05,Rain,Rain,270,2013-10-06 17:08:00
1:11 PM,57.2,55.4,94,29.79,2.0,West,12.7,-,0.08,Rain,Rain,280,2013-10-06 17:11:00
1:16 PM,57.2,55.4,94,29.80,1.8,West,11.5,-,0.10,Rain,Heavy Rain,260,2013-10-06 17:16:00
1:21 PM,57.2,55.4,94,29.79,2.0,West,11.5,17.3,0.11,Rain,Rain,270,2013-10-06 17:21:00
1:29 PM,57.2,55.4,94,29.79,4.0,West,10.4,-,0.11,Rain,Light Rain,260,2013-10-06 17:29:00
1:53 PM,57.9,55.0,90,29.78,3.0,West,6.9,-,0.13,Rain,Light Rain,270,2013-10-06 17:53:00
2:53 PM,57.9,55.0,90,29.77,5.0,West,5.8,-,0.02,Rain,Light Rain,270,2013-10-06 18:53:00
3:24 PM,57.2,53.6,88,29.77,10.0,SW,6.9,-,0.00,Rain,Light Rain,220,2013-10-06 19:24:00
3:53 PM,59.0,54.0,83,29.75,10.0,WSW,6.9,-,0.00,,Overcast,250,2013-10-06 19:53:00
4:53 PM,57.0,52.0,83,29.77,10.0,SW,6.9,-,0.00,Rain,Light Rain,230,2013-10-06 20:53:00
5:53 PM,57.9,53.1,84,29.77,10.0,Variable,5.8,-,0.00,,Mostly Cloudy,0,2013-10-06 21:53:00
6:53 PM,57.9,53.1,84,29.78,10.0,South,9.2,-,N/A,,Mostly Cloudy,180,2013-10-06 22:53:00
7:53 PM,57.0,53.1,87,29.79,10.0,South,8.1,-,N/A,,Scattered Clouds,190,2013-10-06 23:53:00
8:53 PM,55.9,52.0,87,29.80,10.0,SSW,8.1,-,N/A,,Partly Cloudy,210,2013-10-07 00:53:00
9:32 PM,55.4,42.8,63,29.85,10.0,WNW,15.0,-,0.01,,Overcast,290,2013-10-07 01:32:00
9:53 PM,54.0,41.0,62,29.85,10.0,WNW,12.7,-,0.01,,Overcast,290,2013-10-07 01:53:00
10:53 PM,51.1,41.0,68,29.85,10.0,West,5.8,-,N/A,,Scattered Clouds,270,2013-10-07 02:53:00
11:53 PM,48.0,42.1,80,29.86,10.0,WSW,3.5,-,N/A,,Clear,240,2013-10-07 03:53:00